Location: *
(2.5500°S, 65.9667°W)
Time: 17:56:04
(UTC+00:00)

Altair - Visible Passes

Search period start: 19 April 2024 00:00
Search period end: 29 April 2024 00:00
Orbit: 1502 x 1682 km, 47.2° (Epoch: 18 April)

Date Brightness Start Highest point End Pass type
(mag) Time Alt. Az. Time Alt. Az. Time Alt. Az.
19 Apr 9.2 06:48:06 18° NNE 06:50:40 20° NE 06:56:53 10° E visible
19 Apr 7.3 08:46:21 11° NW 08:55:14 77° SW 09:04:27 10° SE visible
20 Apr 9.4 06:26:43 17° ENE 06:26:43 17° ENE 06:30:58 10° E visible
20 Apr 7.3 08:24:54 31° NW 08:30:04 86° SW 08:39:17 10° SE visible
21 Apr 7.3 08:03:05 63° NNW 08:04:53 85° NE 08:14:06 10° SE visible
21 Apr 8.6 10:03:54 10° W 10:09:43 18° SW 10:15:38 10° S visible
22 Apr 7.5 07:40:57 68° ESE 07:40:57 68° ESE 07:48:53 10° SE visible
22 Apr 8.5 09:39:06 13° W 09:44:27 21° SW 09:50:57 10° S visible
23 Apr 8.3 07:18:34 37° ESE 07:18:34 37° ESE 07:23:39 10° SE visible
23 Apr 8.3 09:16:42 21° WSW 09:19:11 24° SW 09:26:11 10° S visible
24 Apr 9.1 06:55:59 20° SE 06:55:59 20° SE 06:58:22 10° SE visible
24 Apr 8.2 08:54:05 27° SW 08:54:05 27° SW 09:01:23 10° S visible
25 Apr 8.3 08:31:18 27° SSW 08:31:18 27° SSW 08:36:30 10° S visible
26 Apr 8.7 08:08:21 22° S 08:08:21 22° S 08:11:36 10° SSE visible
27 Apr 9.1 07:45:15 15° SSE 07:45:15 15° SSE 07:46:39 10° SSE visible
